Regional Weather Roundup
Issued by NWS New Orleans/Baton Rouge, LA

Home | Current Version | Previous Version | Graphics & Text | Print | Product List | Glossary On
Versions: 1 2 3 4 5 6 7 8 9 10 11 12 13 14 15 16 17 18 19 20 21 22 23 24 25 26 27 28 29 30 31 32 33 34 35 36 37 38 39 40 41 42 43 44 45 46 47 48 49 50
713
ASUS44 KLIX 181112
RWRLIX
NEW ORLEANS REGIONAL WEATHER ROUNDUP
NATIONAL WEATHER SERVICE NEW ORLEANS LA
600 AM CDT SAT APR 18 2015

NOTE: "FAIR" INDICATES FEW OR NO CLOUDS BELOW 12,000 FEET WITH NO
      SIGNIFICANT WEATHER AND/OR OBSTRUCTIONS TO VISIBILITY.
      SKY/WX - SKY CONDITION AND SIGNIFICANT WEATHER.
      TMP - AIR TEMPERATURE.     DP    - DEWPOINT TEMPERATURE.
      RH  - RELATIVE HUMIDITY.   PRES  - PRESSURE.
      HI  - HEAT INDEX.          WCI   - WIND CHILL INDEX.

*  THESE STATIONS ARE NOT NWS OR FAA STATIONS AND ARE NOT UNDER
   NWS QUALITY CONTROL.

LAZ038-040-048-061>063-065>067-069-181200-
SOUTHEAST LOUISIANA

CITY           SKY/WX    TMP DP  RH WIND       PRES   REMARKS
N.O. AUDUBON     N/A     73  73 100 MISG        N/A
N.O. INTL ARPT LGT RAIN  72  69  90 E5        29.89F
N.O. LAKEFRONT RAIN      75  70  84 SE6       29.91S
SLIDELL        CLOUDY    70  70 100 NE3       29.92R
BATON ROUGE    HVY RAIN  69  68  96 CALM      29.92R FOG
BOOTHVILLE     LGT RAIN  70  69  97 CALM      29.91F
BELLE CHASSE   LGT RAIN  72  70  93 N5        29.89F
BOGALUSA*      LGT RAIN  70  66  89 CALM      29.94S
GALLIANO*      HVY RAIN  68  67  97 N3        29.92R
NEW ROADS*     LGT RAIN  69  68  98 E8        29.89F
GONZALES*      LGT RAIN  70  70 100 CALM      29.90F
HAMMOND*       CLOUDY    70  66  88 CALM      29.93F
HOUMA*         CLOUDY    69  69  99 E5        29.90F FOG
PORT FOURCHON* CLOUDY    72  68  88 NE10      29.94R

$$

MSZ070-080>082-181200-
SOUTHERN MISSISSIPPI

CITY           SKY/WX    TMP DP  RH WIND       PRES   REMARKS
MCCOMB         LGT RAIN  67  67 100 VRB3      29.93S FOG
GULFPORT       LGT RAIN  69  67  93 NE3       29.92S FOG
BILOXI         RAIN      69  69 100 NE6       29.92S
PASCAGOULA     LGT RAIN  68  68 100 CALM      29.94R FOG

$$

COASTAL OBSERVATIONS
LAKE AND NEARSHORE STATIONS

STATION/POSITION TIME  TEMP    WIND        PRES    WAVE
                       AIR SEA DIR/SP/G            HT/PER
                 (UTC) (F)     (DEG/KT/KT) (MB)    (FT/S)
PASCAGOULA       1000   71      60/  5/  6 1012.9
WAVELAND YACHT   1000   69 73   20/  3/  5 1013.0
GRAND ISLE       1000   69 76   60/  8/ 11 1012.7
SOUTHWEST PASS   1000   71 63  140/ 10/ 12 1012.5
NEW CANAL        1000   73      80/  2/  4 1012.8
SHELL BEACH      1000   74 76   50/  5/  5 1012.1

OFFSHORE STATIONS

STATION/POSITION TIME  TEMP    WIND        PRES    WAVE
                       AIR SEA DIR/SP/G            HT/PER
                 (UTC) (F)     (DEG/KT/KT) (MB)    (FT/S)
64 S DAUPHIN ISL 1050   75 74  150/  6/  8 1012.6    3/ 5

$$




USA.gov is the U.S. government's official web portal to all federal, state and local government web resources and services.